GW0115 Weather Reports


Display with metric or nautical units.
time (UTC)temp
F
wind
direction
speed
MPH
gust
MPH
rain 1hr
in
rain 24hr
in
rain mn
in
humidity
%
barometer
mb
20260506173057 44 0 0.0 4.0 0.13 0.67 0.60 95 1007.0
20260506171602 44 0 0.0 8.0 0.12 0.63 0.56 95 1006.8
20260506170104 44 0 0.0 4.0 0.09 0.58 0.51 94 1007.0
20260506164606 44 0 0.0 4.0 0.09 0.56 0.49 94 1007.1
20260506163119 45 0 0.0 8.0 0.11 0.54 0.47 95 1007.0
20260506161618 45 0 0.0 4.0 0.11 0.51 0.44 95 1007.1
20260506160057 45 0 0.0 3.0 0.12 0.49 0.42 95 1007.2
20260506154610 45 0 0.0 0.0 0.12 0.47 0.40 95 1007.5
20260506153059 45 0 0.0 0.0 0.11 0.43 0.36 95 1007.7
20260506151555 45 0 0.0 0.0 0.12 0.40 0.33 94 1007.7
20260506150123 45 0 0.0 0.0 0.10 0.37 0.30 94 1007.9
20260506144548 45 0 0.0 0.0 0.10 0.35 0.28 94 1008.0
20260506143103 45 0 0.0 0.0 0.08 0.32 0.25 94 1008.1
20260506141553 45 0 0.0 5.0 0.06 0.28 0.21 94 1008.1
20260506140057 45 0 0.0 5.0 0.07 0.27 0.20 93 1008.1
20260506134556 46 0 0.0 4.0 0.08 0.25 0.18 93 1008.0
20260506133048 46 0 0.0 5.0 0.09 0.24 0.17 94 1008.0
20260506131552 46 0 0.0 0.0 0.08 0.22 0.15 93 1008.1
20260506130052 46 0 0.0 4.0 0.07 0.20 0.13 93 1008.2
20260506124550 46 0 0.0 6.0 0.05 0.17 0.10 92 1008.4
20260506123049 47 0 0.0 4.0 0.03 0.15 0.08 91 1008.5
20260506121552 48 0 0.0 5.0 0.03 0.14 0.07 91 1008.2
20260506120057 49 0 0.0 4.0 0.02 0.13 0.06 92 1008.2
20260506114558 49 0 0.0 5.0 0.01 0.12 0.05 91 1007.9
20260506113050 50 0 0.0 8.0 0.01 0.12 0.05 92 1007.8
20260506111554 50 0 0.0 0.0 0.01 0.11 0.04 92 1007.8
20260506110100 51 0 0.0 5.0 0.01 0.11 0.04 92 1007.9
20260506104554 51 0 0.0 0.0 0.01 0.11 0.04 91 1007.6
20260506103051 51 0 0.0 0.0 0.01 0.11 0.04 91 1007.6
20260506101605 52 0 0.0 1.0 0.00 0.10 0.03 92 1007.3
20260506100058 52 0 0.0 1.0 0.00 0.10 0.03 93 1007.1
20260506094615 53 0 0.0 0.0 0.00 0.10 0.03 94 1007.0
20260506093055 53 0 0.0 0.0 0.00 0.10 0.03 94 1007.2
20260506091549 53 0 0.0 0.0 0.00 0.10 0.03 95 1007.5
20260506090049 53 0 0.0 0.0 0.00 0.10 0.03 94 1007.3
20260506084552 53 0 0.0 0.0 0.00 0.10 0.03 94 1007.6
20260506083048 53 0 0.0 0.0 0.00 0.10 0.03 93 1007.7
20260506081550 53 0 0.0 0.0 0.00 0.10 0.03 94 1007.5
20260506073053 54 0 0.0 0.0 0.00 0.10 0.03 94 1007.9
20260506071554 53 0 0.0 0.0 0.01 0.10 0.03 93 1007.9
20260506070104 53 0 0.0 0.0 0.01 0.10 0.03 92 1007.7
20260506061559 55 0 0.0 0.0 0.00 0.09 0.02 93 1007.9
20260506060104 55 0 0.0 0.0 0.00 0.09 0.02 92 1007.8
20260506044554 57 0 0.0 0.0 0.02 0.09 0.02 87 1008.6
20260506043057 58 0 0.0 0.0 0.02 0.09 0.02 85 1008.4
20260506041557 59 0 0.0 0.0 0.01 0.08 0.01 83 1007.9
20260506034603 61 0 0.0 0.0 0.00 0.07 0.07 75 1008.1
20260506033057 61 0 0.0 0.0 0.00 0.07 0.07 76 1007.8
20260506031604 62 0 0.0 0.0 0.00 0.07 0.07 75 1007.7
20260506024556 60 0 0.0 0.0 0.00 0.07 0.07 83 1007.4
20260506023056 59 0 0.0 0.0 0.00 0.07 0.07 85 1007.1
20260506021556 58 0 0.0 0.0 0.00 0.07 0.07 86 1006.7
20260506020057 58 0 0.0 0.0 0.00 0.07 0.07 80 1006.7
20260506014554 59 0 0.0 0.0 0.00 0.07 0.07 84 1006.6
20260506013051 58 0 0.0 0.0 0.00 0.07 0.07 87 1006.2
20260506011553 57 0 0.0 0.0 0.00 0.07 0.07 87 1006.2
20260506010057 57 0 0.0 0.0 0.00 0.07 0.07 85 1006.0
20260506004554 58 0 0.0 0.0 0.00 0.07 0.07 86 1005.5
20260506003049 56 0 0.0 0.0 0.00 0.07 0.07 86 1005.4
20260506001551 56 0 0.0 0.0 0.00 0.07 0.07 85 1005.4
20260506000055 56 0 0.0 0.0 0.00 0.07 0.07 83 1005.4
20260505234557 57 0 0.0 0.0 0.00 0.07 0.07 78 1005.2
20260505233053 59 0 0.0 0.0 0.00 0.07 0.07 77 1005.1
20260505231555 60 0 0.0 0.0 0.00 0.07 0.07 75 1005.1
20260505230050 63 0 0.0 8.0 0.00 0.07 0.07 72 1004.8
20260505224552 64 225 2.0 12.0 0.00 0.07 0.07 71 1004.9
20260505223053 65 0 2.0 11.0 0.00 0.07 0.07 71 1004.6
20260505221550 64 0 0.0 0.0 0.00 0.07 0.07 76 1004.4
20260505220053 64 0 0.0 10.0 0.01 0.07 0.07 72 1004.1
20260505214554 64 248 3.0 15.0 0.01 0.07 0.07 72 1004.6
20260505213050 63 0 0.0 0.0 0.01 0.07 0.07 80 1004.5
20260505211606 65 0 0.0 12.0 0.01 0.07 0.07 76 1004.8
20260505210054 62 0 0.0 7.0 0.00 0.06 0.06 79 1004.7
20260505204553 61 0 0.0 0.0 0.01 0.06 0.06 80 1003.5
20260505203052 63 0 0.0 7.0 0.02 0.06 0.06 79 1002.9
20260505201558 62 0 0.0 10.0 0.04 0.06 0.06 82 1002.8
20260505200053 63 217 1.0 15.0 0.06 0.06 0.06 80 1004.5
20260505194606 64 245 4.0 13.0 0.05 0.05 0.05 77 1004.2
20260505193057 64 0 0.0 8.0 0.04 0.04 0.04 74 1003.5
20260505191551 69 265 0.0 11.0 0.02 0.02 0.02 70 1003.7
20260505190050 74 194 7.0 15.0 0.00 0.00 0.00 48 1002.2
20260505184552 75 263 0.0 10.0 0.00 0.00 0.00 46 1002.0
20260505183055 77 243 2.0 11.0 0.00 0.00 0.00 44 1001.2
20260505181558 77 166 1.0 12.0 0.00 0.00 0.00 43 1001.3
20260505180054 77 239 2.0 14.0 0.00 0.00 0.00 43 1001.3
20260505174557 75 236 3.0 17.0 0.00 0.00 0.00 45 1001.3